Weather History for KRDG - November, 2012

Change the Weather History Date:

Sunday, November 11, 2012

  Actual Average Record
Temperature  
Mean Temperature 52 °F 46 °F  
Max Temperature 67 °F 56 °F 73 °F (1949)
Min Temperature 36 °F 36 °F 18 °F (1973)
Degree Days  
Heating Degree Days 13 19  
Month to date heating degree days 241 194  
Since 1 July heating degree days 578 632  
Cooling Degree Days 0 0  
Month to date cooling degree days 0 0  
Year to date cooling degree days 1281 896  
Growing Degree Days 2 (Base 50)    
Moisture  
Dew Point 41 °F    
Average Humidity 66    
Maximum Humidity 92    
Minimum Humidity 39    
Precipitation  
Precipitation 0.00 in 0.09 in 1.64 in (1990)
Month to date precipitation T 1.21  
Year to date precipitation 35.02 37.73  
Sea Level Pressure  
Sea Level Pressure 30.44 in    
Wind  
Wind Speed 1 mph (SSE)    
Max Wind Speed 10 mph    
Max Gust Speed 13 mph    
Visibility 8 miles    
Events      
T = Trace of Precipitation, MM = Missing Value Source: NWS Daily Summary

Daily Weather History Graph

Daily Weather History Graph

Search for Another Location

Airport or City:

Trip Planner

Search our weather history database for the weather conditions in past years. The results will help you decide how hot, cold, wet, or windy it might be!

Date:

Astronomy

Nov. 11, 2012 Rise Set
Actual Time 6:45 AM EST 4:49 PM EST
Civil Twilight 6:16 AM EST 5:18 PM EST
Nautical Twilight 5:44 AM EST 5:51 PM EST
Astronomical Twilight 5:11 AM EST 6:23 PM EST
Moon 3:56 AM EST (11/11) 3:12 PM EST (11/11)
Length of Visible Light 11h 01m
Length of Day
10h 03m
Waning Crescent, 7% of the Moon is Illuminated
Nov 11
Waning Crescent
Nov 13
New
Nov 20
First Quarter
Nov 28
Full
Dec 6
Last Quarter

Hourly Weather History & Observations

Time (EST) Temp. Dew Point Humidity Pressure Visibility Wind Dir Wind Speed Gust Speed Precip Events Conditions
12:54 AM 39.9 °F 37.0 °F 89% 30.40 in 5.0 mi Calm Calm - N/A   Mostly Cloudy
1:54 AM 39.0 °F 36.0 °F 89% 30.40 in 5.0 mi Calm Calm - N/A   Clear
2:54 AM 39.0 °F 37.0 °F 93% 30.40 in 3.0 mi Calm Calm - N/A   Mostly Cloudy
3:54 AM 37.0 °F 34.0 °F 89% 30.41 in 5.0 mi Calm Calm - N/A   Scattered Clouds
4:54 AM 39.9 °F 37.9 °F 93% 30.43 in 4.0 mi Calm Calm - N/A   Overcast
5:54 AM 39.0 °F 37.0 °F 93% 30.44 in 4.0 mi Calm Calm - N/A   Scattered Clouds
6:54 AM 39.9 °F 37.0 °F 89% 30.46 in 4.0 mi Calm Calm - N/A   Clear
7:54 AM 42.1 °F 39.0 °F 89% 30.48 in 4.0 mi Calm Calm - N/A   Clear
9:54 AM 50.0 °F 42.1 °F 74% 30.49 in 6.0 mi Calm Calm - N/A   Haze
10:54 AM 54.0 °F 44.1 °F 69% 30.48 in 6.0 mi Calm Calm - N/A   Haze
11:54 AM 57.9 °F 45.0 °F 62% 30.45 in 10.0 mi Calm Calm - N/A   Clear
1:54 PM 64.9 °F 46.0 °F 50% 30.41 in 10.0 mi SSE 3.5 mph - N/A   Clear
2:54 PM 66.9 °F 46.0 °F 47% 30.40 in 10.0 mi South 4.6 mph - N/A   Clear
3:54 PM 64.9 °F 44.1 °F 47% 30.40 in 10.0 mi SE 4.6 mph - N/A   Clear
4:54 PM 63.0 °F 37.9 °F 40% 30.41 in 10.0 mi SSE 3.5 mph - N/A   Clear
5:54 PM 61.0 °F 39.9 °F 46% 30.44 in 10.0 mi SSE 3.5 mph - N/A   Clear
6:54 PM 59.0 °F 44.1 °F 58% 30.45 in 10.0 mi SSE 5.8 mph - N/A   Clear
7:54 PM 57.0 °F 44.1 °F 62% 30.46 in 10.0 mi Calm Calm - N/A   Clear
8:54 PM 57.0 °F 44.1 °F 62% 30.45 in 10.0 mi Calm Calm - N/A   Clear
9:54 PM 55.0 °F 42.1 °F 62% 30.45 in 10.0 mi Calm Calm - N/A   Clear
10:54 PM 54.0 °F 43.0 °F 66% 30.44 in 10.0 mi SE 3.5 mph - N/A   Clear
11:54 PM 46.9 °F 42.1 °F 83% 30.45 in 10.0 mi Calm Calm - N/A   Clear